TimeCDT,TemperatureF,Dew PointF,Humidity,Sea Level PressureIn,VisibilityMPH,Wind Direction,Wind SpeedMPH,Gust SpeedMPH,PrecipitationIn,Events,Conditions,WindDirDegrees,DateUTC
12:15 AM,48.2,35.6,62,29.98,10.0,North,9.2,-,N/A,,Overcast,350,2013-09-22 05:15:00
12:35 AM,48.2,35.6,62,29.98,10.0,North,9.2,-,N/A,,Overcast,10,2013-09-22 05:35:00
12:55 AM,48.2,35.6,62,29.99,10.0,NNE,6.9,-,N/A,,Overcast,20,2013-09-22 05:55:00
1:15 AM,48.2,37.4,66,29.99,10.0,North,9.2,-,N/A,,Overcast,10,2013-09-22 06:15:00
1:35 AM,48.2,37.4,66,30.00,10.0,NNE,9.2,-,N/A,,Overcast,20,2013-09-22 06:35:00
1:55 AM,48.2,37.4,66,30.00,10.0,NNE,9.2,-,N/A,,Overcast,20,2013-09-22 06:55:00
2:15 AM,48.2,37.4,66,30.00,10.0,North,9.2,-,N/A,,Overcast,10,2013-09-22 07:15:00
2:35 AM,46.4,37.4,71,30.00,10.0,North,6.9,-,N/A,,Overcast,360,2013-09-22 07:35:00
2:55 AM,46.4,37.4,71,30.00,10.0,NNE,8.1,-,N/A,,Mostly Cloudy,20,2013-09-22 07:55:00
3:15 AM,46.4,37.4,71,30.00,10.0,NNE,5.8,-,N/A,,Mostly Cloudy,20,2013-09-22 08:15:00
3:35 AM,46.4,37.4,71,30.01,10.0,North,4.6,-,N/A,,Overcast,350,2013-09-22 08:35:00
3:55 AM,48.2,35.6,62,30.02,10.0,North,8.1,-,N/A,,Overcast,360,2013-09-22 08:55:00
4:15 AM,46.4,35.6,66,30.02,10.0,North,8.1,-,N/A,,Mostly Cloudy,350,2013-09-22 09:15:00
4:35 AM,46.4,35.6,66,30.02,10.0,North,9.2,-,N/A,,Mostly Cloudy,360,2013-09-22 09:35:00
4:55 AM,46.4,35.6,66,30.02,10.0,North,9.2,-,N/A,,Scattered Clouds,360,2013-09-22 09:55:00
5:15 AM,46.4,35.6,66,30.02,10.0,North,6.9,-,N/A,,Partly Cloudy,350,2013-09-22 10:15:00
5:35 AM,46.4,35.6,66,30.03,10.0,NNW,8.1,-,N/A,,Mostly Cloudy,340,2013-09-22 10:35:00
5:55 AM,46.4,37.4,71,30.03,10.0,North,5.8,-,N/A,,Overcast,350,2013-09-22 10:55:00
6:15 AM,46.4,37.4,71,30.04,10.0,North,6.9,-,N/A,,Overcast,350,2013-09-22 11:15:00
6:35 AM,46.4,37.4,71,30.05,10.0,NNW,6.9,-,N/A,,Overcast,340,2013-09-22 11:35:00
6:55 AM,46.4,37.4,71,30.05,10.0,North,8.1,-,N/A,,Overcast,350,2013-09-22 11:55:00
7:15 AM,48.2,37.4,66,30.05,10.0,NNE,8.1,-,N/A,,Overcast,20,2013-09-22 12:15:00
7:35 AM,48.2,37.4,66,30.05,10.0,NNE,5.8,-,N/A,,Overcast,20,2013-09-22 12:35:00
7:55 AM,48.2,37.4,66,30.06,10.0,NE,6.9,-,N/A,,Overcast,40,2013-09-22 12:55:00
8:15 AM,48.2,37.4,66,30.06,10.0,NE,5.8,-,N/A,,Overcast,50,2013-09-22 13:15:00
8:35 AM,48.2,37.4,66,30.07,10.0,NE,4.6,-,N/A,,Overcast,40,2013-09-22 13:35:00
8:55 AM,48.2,37.4,66,30.08,10.0,ENE,6.9,-,N/A,,Overcast,60,2013-09-22 13:55:00
9:15 AM,48.2,37.4,66,30.09,10.0,ENE,5.8,-,N/A,,Overcast,70,2013-09-22 14:15:00
9:35 AM,48.2,37.4,66,30.09,10.0,NE,6.9,-,N/A,,Overcast,40,2013-09-22 14:35:00
9:55 AM,48.2,39.2,71,30.10,10.0,ENE,5.8,-,N/A,,Overcast,70,2013-09-22 14:55:00
10:15 AM,48.2,39.2,71,30.11,10.0,NE,5.8,-,N/A,,Overcast,50,2013-09-22 15:15:00
10:35 AM,48.2,39.2,71,30.11,10.0,ENE,4.6,-,N/A,,Overcast,60,2013-09-22 15:35:00
10:55 AM,48.2,39.2,71,30.11,10.0,NE,4.6,-,N/A,,Overcast,40,2013-09-22 15:55:00
11:15 AM,48.2,39.2,71,30.11,10.0,East,3.5,-,N/A,,Overcast,80,2013-09-22 16:15:00
11:35 AM,48.2,39.2,71,30.11,10.0,ESE,5.8,-,N/A,,Overcast,110,2013-09-22 16:35:00
11:55 AM,50.0,39.2,66,30.11,10.0,NE,4.6,-,N/A,,Overcast,50,2013-09-22 16:55:00
12:15 PM,50.0,37.4,62,30.11,10.0,NNE,6.9,-,N/A,,Overcast,20,2013-09-22 17:15:00
12:35 PM,50.0,37.4,62,30.11,10.0,Calm,Calm,-,N/A,,Overcast,0,2013-09-22 17:35:00
12:55 PM,51.8,37.4,58,30.10,10.0,NNE,5.8,-,N/A,,Overcast,20,2013-09-22 17:55:00
1:15 PM,51.8,39.2,62,30.09,10.0,North,3.5,-,N/A,,Overcast,360,2013-09-22 18:15:00
1:35 PM,51.8,37.4,58,30.09,10.0,East,4.6,-,N/A,,Overcast,80,2013-09-22 18:35:00
1:55 PM,51.8,39.2,62,30.09,10.0,ENE,3.5,-,N/A,,Overcast,60,2013-09-22 18:55:00
2:15 PM,51.8,39.2,62,30.09,10.0,North,5.8,-,N/A,,Overcast,360,2013-09-22 19:15:00
2:35 PM,51.8,39.2,62,30.08,10.0,NNE,6.9,-,N/A,,Overcast,20,2013-09-22 19:35:00
2:55 PM,51.8,39.2,62,30.08,10.0,North,6.9,-,N/A,,Overcast,10,2013-09-22 19:55:00
3:15 PM,51.8,39.2,62,30.08,10.0,NNW,6.9,-,N/A,,Overcast,340,2013-09-22 20:15:00
3:35 PM,51.8,39.2,62,30.08,10.0,NNE,4.6,-,N/A,,Overcast,20,2013-09-22 20:35:00
3:55 PM,51.8,39.2,62,30.08,10.0,North,4.6,-,N/A,,Overcast,360,2013-09-22 20:55:00
4:15 PM,51.8,39.2,62,30.08,10.0,ENE,4.6,-,N/A,,Overcast,70,2013-09-22 21:15:00
4:35 PM,51.8,39.2,62,30.08,10.0,East,4.6,-,N/A,,Overcast,80,2013-09-22 21:35:00
4:55 PM,51.8,39.2,62,30.08,10.0,Calm,Calm,-,N/A,,Overcast,0,2013-09-22 21:55:00
5:15 PM,51.8,39.2,62,30.08,10.0,East,3.5,-,N/A,,Overcast,100,2013-09-22 22:15:00
5:35 PM,50.0,39.2,66,30.08,10.0,East,3.5,-,N/A,,Overcast,80,2013-09-22 22:35:00
5:55 PM,50.0,39.2,66,30.08,10.0,Calm,Calm,-,N/A,,Overcast,0,2013-09-22 22:55:00
6:15 PM,50.0,39.2,66,30.08,10.0,East,4.6,-,N/A,,Overcast,90,2013-09-22 23:15:00
6:35 PM,50.0,39.2,66,30.08,10.0,East,3.5,-,N/A,,Overcast,100,2013-09-22 23:35:00
6:55 PM,50.0,37.4,62,30.08,10.0,ESE,4.6,-,N/A,,Overcast,110,2013-09-22 23:55:00
7:15 PM,48.2,37.4,66,30.09,10.0,Calm,Calm,-,N/A,,Overcast,0,2013-09-23 00:15:00
7:35 PM,48.2,37.4,66,30.09,10.0,East,4.6,-,N/A,,Overcast,80,2013-09-23 00:35:00
7:55 PM,48.2,37.4,66,30.09,10.0,ESE,5.8,-,N/A,,Overcast,110,2013-09-23 00:55:00
8:15 PM,48.2,37.4,66,30.10,10.0,Calm,Calm,-,N/A,,Mostly Cloudy,0,2013-09-23 01:15:00
8:35 PM,44.6,39.2,81,30.10,10.0,Calm,Calm,-,N/A,,Mostly Cloudy,0,2013-09-23 01:35:00
8:55 PM,44.6,39.2,81,30.10,10.0,Calm,Calm,-,N/A,,Partly Cloudy,0,2013-09-23 01:55:00
9:15 PM,44.6,37.4,76,30.10,10.0,Calm,Calm,-,N/A,,Scattered Clouds,0,2013-09-23 02:15:00
9:35 PM,42.8,39.2,87,30.10,10.0,Calm,Calm,-,N/A,,Partly Cloudy,0,2013-09-23 02:35:00
9:55 PM,42.8,37.4,81,30.10,10.0,Calm,Calm,-,N/A,,Clear,0,2013-09-23 02:55:00
10:15 PM,42.8,37.4,81,30.11,10.0,Calm,Calm,-,N/A,,Clear,0,2013-09-23 03:15:00
10:35 PM,41.0,37.4,87,30.11,10.0,Calm,Calm,-,N/A,,Scattered Clouds,0,2013-09-23 03:35:00
10:55 PM,41.0,37.4,87,30.11,10.0,Calm,Calm,-,N/A,,Mostly Cloudy,0,2013-09-23 03:55:00
11:15 PM,42.8,37.4,81,30.11,10.0,Calm,Calm,-,N/A,,Overcast,0,2013-09-23 04:15:00
11:35 PM,42.8,37.4,81,30.11,10.0,Calm,Calm,-,N/A,,Overcast,0,2013-09-23 04:35:00
11:55 PM,44.6,39.2,81,30.11,10.0,Calm,Calm,-,N/A,,Overcast,0,2013-09-23 04:55:00